Regional Weather Roundup
Issued by NWS

Home | Current Version | Previous Version | Text Only | Print | Product List | Glossary Off
Versions: 1 2 3 4 5 6 7 8 9 10 11 12 13 14 15 16 17 18 19 20 21 22 23 24 25 26 27 28 29 30 31 32 33 34 35 36 37 38 39 40 41 42 43 44 45 46 47 48 49 50

000
ASUS45 KBOU 162307
RWRCO

WEATHER ROUNDUP FOR COLORADO
NATIONAL WEATHER SERVICE DENVER/BOULDER CO
400 PM MST TUE DEC 16 2014

NOTE: "FAIR" INDICATES FEW OR NO CLOUDS BELOW 12000 FEET WITH NO
SIGNIFICANT WEATHER AND/OR OBSTRUCTIONS TO VISIBILITY.

COZ001>005-013-030-031-170000-
...NORTHWEST COLORADO...

CITY           SKY/WX    TMP DP  RH WIND       PRES   REMARKS
CRAIG          MOCLDY    24  21  88 SW8       30.06R WCI  15
HAYDEN         MOCLDY    28  21  74 SE9       30.04R WCI  20
MEEKER         PTCLDY    29  22  75 CALM      30.05R
MOUNT WERNER   NOT AVBL
STEAMBOAT SPGS CLOUDY    27  22  83 CALM      30.04S
WALDEN         CLOUDY    19  16  86 CALM      30.04S
$$

COZ006>008-011-170000-
...WEST CENTRAL VALLEYS...

CITY           SKY/WX    TMP DP  RH WIND       PRES   REMARKS
GRAND JUNCTION MOCLDY    41  27  57 CALM      30.06S
MONTROSE       CLOUDY    43  25  49 VRB3      30.07R
EAGLE          PTCLDY    25  18  74 CALM      30.14S
RIFLE          PTCLDY    36  24  62 CALM      30.07R
DELTA          CLOUDY    46  30  53 CALM      30.06R
NUCLA          CLOUDY    37  27  65 CALM      30.11S
$$

COZ017>023-064>068-170000-
...SOUTHWEST COLORADO...

CITY           SKY/WX    TMP DP  RH WIND       PRES   REMARKS
DURANGO        CLOUDY    39  22  50 E5        30.10F
CORTEZ         PTCLDY    46  25  43 W6        30.07S
PAGOSA SPRINGS CLOUDY    38  22  52 CALM      30.13F
TELLURIDE      CLOUDY    37  13  38 S6        30.10S
WOLF CREEK PAS CLOUDY    18  18 100 MISG      30.16R
$$

COZ009-010-012-014-032>034-037-058>063-170000-
...CENTRAL COLORADO...

CITY           SKY/WX    TMP DP  RH WIND       PRES   REMARKS
ASPEN          CLOUDY    29  23  78 CALM      30.05S
BUENA VISTA    PTCLDY    38  12  33 SE14      30.03S
COPPER MTN     FLURRIES  28  18  64 S9        30.11R WCI  20
BERTHOUD PASS  SNOW      19  14  79 MISG      30.12R VSB 1/2
COTTONWOOD PAS PTCLDY    37  14  38 NW8       30.07R
GUNNISON       MOCLDY    28  16  59 CALM      30.12R
KREMMLING      MOCLDY    19  12  73 CALM      30.12S
LEADVILLE      MOCLDY    30  16  56 S10       30.05R WCI  21
MONARCH PASS   CLOUDY    23  16  74 MISG      30.22R
SALIDA         PTCLDY    40  12  31 S17G23    30.12R
SUNLIGHT       MOCLDY    28  27  93 CALM      30.11R
WILKERSON PASS CLEAR     28  18  64 SW6       30.12R WCI  22
$$

COZ069>075-170000-
...SAN LUIS VALLEY/SANGRE DE CRISTO MOUNTAINS...

CITY           SKY/WX    TMP DP  RH WIND       PRES   REMARKS
ALAMOSA        PTCLDY    35  17  47 SE8       30.10R WCI  29
LA VETA PASS   NOT AVBL
SAGUACHE       PTCLDY    37  10  32 S7        30.11R
$$

COZ035-036-038>040-170000-
...NORTHERN COLORADO FRONT RANGE...

CITY           SKY/WX    TMP DP  RH WIND       PRES   REMARKS
DENVER INTL AP MOCLDY    33  21  61 VRB3      30.04R
DMNS CITY PARK   N/A     34  21  60 N3        30.05R
AURORA         MOCLDY    30  20  66 N6        30.04R WCI  24
FRONT RANGE AP NOT AVBL
ERIE MUNI ARPT   N/A     34  22  63 CALM      30.05R
BOULDER MUN AP CLOUDY    32  23  69 CALM      30.05R
CENTENNIAL     PTCLDY    31  21  66 N8        30.03R WCI  23
BROOMFIELD     CLOUDY    32  23  69 CALM      30.04R
FORT COLLINS   CLOUDY    32  19  59 E5        30.06R WCI  27
LONGMONT       CLOUDY    37  23  56 CALM      30.06S
$$

COZ041-046-047-076>085-087-088-170000-
...PIKES PEAK/PALMER DIVIDE AND SOUTHERN FOOTHILLS...

CITY           SKY/WX    TMP DP  RH WIND       PRES   REMARKS
COLO. SPRINGS  PTCLDY    33  17  51 SE5       30.04F WCI  29
A. F. ACADEMY  CLEAR     34  18  52 S7        30.03R WCI  28
ELLICOTT       NOT AVBL
FALCON         CLEAR     33  16  50 S7        30.04R WCI  26
FORT CARSON    PTCLDY    34  17  51 E6        30.03S WCI  29
LIMON          CLOUDY    29  17  61 S14       30.04F WCI  18
MONUMENT HILL  PTCLDY    36  23  60 CALM      29.99R
TRINIDAD       MOCLDY    41  26  55 NE8       30.02F
$$

COZ042>045-048>051-090-091-170000-
...NORTHEAST COLORADO...

CITY           SKY/WX    TMP DP  RH WIND       PRES   REMARKS
GREELEY ARPT   CLOUDY    30  19  64 E12       30.04F WCI  21
AKRON          CLOUDY    29  24  82 SE14      30.06F WCI  18
BURLINGTON     CLOUDY    32  21  64 S12       30.12S WCI  23
WRAY           MOCLDY    26  24  92 E6        30.15S WCI  20
STERLING       CLOUDY    27  25  93 NE6       30.09S WCI  20
HOLYOKE        NOT AVBL
FORT MORGAN    CLOUDY    27  22  80 NE8       30.07R WCI  19
$$

COZ086-089-092>099-170000-
...SOUTHEAST COLORADO...

CITY           SKY/WX    TMP DP  RH WIND       PRES   REMARKS
PUEBLO         PTCLDY    36  18  48 E9        30.06R
LA JUNTA       MOCLDY    36  28  73 N3        30.08S
LAMAR          CLOUDY    37  25  61 E10       30.08F
SPRINGFIELD      N/A     42  25  50 S20       30.07F
$$



USA.gov is the U.S. government's official web portal to all federal, state and local government web resources and services.